Seattle Boeing, WA
on Thursday, December 6, 2012

Thursday
Previous Day Next Day
Daily Summary
 ActualAverage (KSEA)Record (KSEA)
Temperature
Mean Temperature °F 41°F  
Max Temperature 46°F 46°F 57°F (1965)
Min Temperature 42°F 36°F 19°F (1956)
Degree Days
Heating Degree Days 21 24  
Month to date heating degree days 140  
Since 1 July heating degree days 1323  
Cooling Degree Days 0 0  
Month to date cooling degree days 0  
Year to date cooling degree days 189  
Moisture
Dew Point 39°F   
Average Humidity 80    
Maximum Humidity 86    
Minimum Humidity 74    
Precipitation
Precipitation 0.07 in 0.18 in 1.39 in (1970)
Month to date precipitation 1.16  
Year to date precipitation 33.30  
Snow
Snow 0.00 in in 0.30 in (1980)
Month to date snowfall  
Since 1 July snowfall  
Snow Depth in   
Wind
Wind Speed 9 mph   
Max Wind Speed 14 mph   
Max Gust Speed 26 mph   
Visibility 10 miles   
Events Rain   

Key: T is trace of precipitation, MM is missing value
Source: NWS Daily Summary
Time(PST)TemperatureDew PointHumidity Pressure Visibility Wind DirectionWind SpeedGust SpeedPrecipitationEvents Conditions
12:53 AM 44.1°F 37.9°F 79% 30.18 in 10.0 miles SSE 9.2 mph - 0.01 in Rain Light Rain
1:53 AM 45.0°F 37.0°F 74% 30.18 in 10.0 miles South 5.8 mph - 0.00 in Rain Light Rain
2:53 AM 44.1°F 37.9°F 79% 30.17 in 10.0 miles SSE 12.7 mph - 0.00 in   Mostly Cloudy
3:53 AM 44.1°F 37.9°F 79% 30.15 in 10.0 miles SSE 8.1 mph - N/A   Overcast
4:53 AM 45.0°F 37.9°F 76% 30.14 in 10.0 miles South 10.4 mph - N/A   Overcast
5:53 AM 44.1°F 37.9°F 79% 30.12 in 10.0 miles South 10.4 mph 18.4 mph N/A   Mostly Cloudy
6:53 AM 45.0°F 37.0°F 74% 30.12 in 10.0 miles South 11.5 mph 18.4 mph N/A   Overcast
7:53 AM 45.0°F 37.9°F 76% 30.11 in 6.0 miles South 8.1 mph 17.3 mph 0.00 in Rain Light Rain
8:53 AM 45.0°F 37.9°F 76% 30.11 in 10.0 miles South 10.4 mph - 0.00 in Rain Light Rain
9:53 AM 45.0°F 39.0°F 80% 30.10 in 10.0 miles South 9.2 mph 19.6 mph 0.02 in Rain Light Rain
9:57 AM 44.6°F 39.2°F 81% 30.11 in 9.0 miles South 9.2 mph - 0.00 in Rain Light Rain
10:53 AM 45.0°F 39.9°F 82% 30.11 in 10.0 miles South 12.7 mph 18.4 mph 0.01 in   Overcast
11:53 AM 45.0°F 39.9°F 82% 30.08 in 7.0 miles South 13.8 mph 26.5 mph 0.03 in Rain Light Rain
12:10 PM 44.6°F 39.2°F 81% 30.07 in 10.0 miles South 12.7 mph 19.6 mph 0.00 in   Overcast
12:53 PM 46.0°F 39.0°F 76% 30.06 in 10.0 miles South 9.2 mph 20.7 mph 0.00 in   Overcast
1:53 PM 46.0°F 39.9°F 79% 30.05 in 10.0 miles South 10.4 mph 18.4 mph N/A   Mostly Cloudy
2:53 PM 46.0°F 39.9°F 79% 30.05 in 10.0 miles SSW 8.1 mph 17.3 mph N/A   Overcast
3:14 PM 46.4°F 39.2°F 76% 30.05 in 10.0 miles SSW 10.4 mph - N/A   Overcast
3:36 PM 46.4°F 39.2°F 76% 30.05 in 10.0 miles SSW 6.9 mph - N/A   Overcast
3:53 PM 46.0°F 39.9°F 79% 30.06 in 10.0 miles SSW 6.9 mph - N/A   Overcast
4:53 PM 45.0°F 39.0°F 80% 30.07 in 10.0 miles SSW 8.1 mph - N/A   Overcast
5:53 PM 44.1°F 39.0°F 82% 30.08 in 10.0 miles SSW 5.8 mph - N/A   Mostly Cloudy
6:53 PM 43.0°F 37.9°F 82% 30.09 in 10.0 miles Calm Calm - N/A   Partly Cloudy
7:53 PM 42.1°F 37.9°F 85% 30.10 in 10.0 miles Calm Calm - N/A   Scattered Clouds
8:53 PM 43.0°F 39.0°F 86% 30.12 in 10.0 miles Calm Calm - N/A   Overcast
9:53 PM 43.0°F 37.9°F 82% 30.11 in 10.0 miles South 4.6 mph - N/A   Mostly Cloudy
10:53 PM 44.1°F 39.9°F 85% 30.12 in 10.0 miles SSE 5.8 mph - N/A   Overcast
11:53 PM 45.0°F 39.9°F 82% 30.10 in 10.0 miles SSE 9.2 mph - N/A   Overcast
Moon Phase
Dec. 06 Dec. 13 Dec. 20 Dec. 28 Jan. 04
Sunrise:07:42 AM (PST) Moon Rise:No Moon Rise/
Sunset:04:18 PM (PST) Moon Set:12:13 PM (PST)12/6

Copyright © 2014 The Weather Underground, Inc.